Actual water levels and discharges of Vltava river

Vraňany

Date and time (UTC) H (cm) Q (m³/s)
25. 2. 2024 13:20 174 273
25. 2. 2024 13:00 174 273
25. 2. 2024 12:00 174 273
25. 2. 2024 11:00 174 273
25. 2. 2024 10:00 174 273
25. 2. 2024 09:00 175 274
25. 2. 2024 08:00 175 274
25. 2. 2024 07:00 175 274
25. 2. 2024 06:00 176 276
25. 2. 2024 05:00 176 276
25. 2. 2024 04:00 176 276
25. 2. 2024 03:00 176 276
25. 2. 2024 02:00 174 273
25. 2. 2024 01:00 173 271

H - water level, Q - discharge

Praha-Chuchle

Date and time (UTC) H (cm) Q (m³/s)
25. 2. 2024 13:20 101 249
25. 2. 2024 13:00 100 244
25. 2. 2024 12:00 101 249
25. 2. 2024 11:00 100 244
25. 2. 2024 10:00 100 244
25. 2. 2024 09:00 100 244
25. 2. 2024 08:00 101 249
25. 2. 2024 07:00 101 249
25. 2. 2024 06:00 101 249
25. 2. 2024 05:00 101 249
25. 2. 2024 04:00 101 249
25. 2. 2024 03:00 101 249
25. 2. 2024 02:00 101 249
25. 2. 2024 01:00 101 249

H - water level, Q - discharge
more information

VD Vrané nad Vltavou

Date and time (UTC) H (m n. m.) Q (m³/s)
25. 2. 2024 13:20 199.66 179.6
25. 2. 2024 13:00 199.73 180
25. 2. 2024 12:00 199.91 180
25. 2. 2024 11:00 200.01 180
25. 2. 2024 10:00 199.98 180
25. 2. 2024 09:00 199.94 180
25. 2. 2024 08:00 199.90 180
25. 2. 2024 07:00 199.90 180
25. 2. 2024 06:00 199.94 180
25. 2. 2024 05:00 199.96 180
25. 2. 2024 04:00 200.01 181
25. 2. 2024 03:00 200.02 180
25. 2. 2024 02:00 200.00 181
25. 2. 2024 01:00 199.98 181

H - water level, Q - outflow

VD Štěchovice

Date and time (UTC) H (m n. m.) Q (m³/s)
25. 2. 2024 13:20 216.39 25
25. 2. 2024 13:00 216.37 25
25. 2. 2024 12:00 216.45 25
25. 2. 2024 11:00 216.59 129
25. 2. 2024 10:00 217.11 159
25. 2. 2024 09:00 216.92 158
25. 2. 2024 08:00 216.75 144
25. 2. 2024 07:00 216.54 106
25. 2. 2024 06:00 216.59 -
25. 2. 2024 05:00 217.03 -
25. 2. 2024 04:00 217.46 123
25. 2. 2024 03:00 217.95 140
25. 2. 2024 02:00 218.48 -
25. 2. 2024 01:00 218.96 -

H - water level, Q - outflow

VD Slapy

Date and time (UTC) H (m n. m.) Q (m³/s)
25. 2. 2024 13:20 268.45 0
25. 2. 2024 13:00 268.46 0
25. 2. 2024 12:00 268.43 0
25. 2. 2024 11:00 268.44 0
25. 2. 2024 10:00 268.40 156
25. 2. 2024 09:00 268.43 200
25. 2. 2024 08:00 268.44 198
25. 2. 2024 07:00 268.46 141
25. 2. 2024 06:00 268.45 29
25. 2. 2024 05:00 268.39 0
25. 2. 2024 04:00 268.39 0
25. 2. 2024 03:00 268.39 0
25. 2. 2024 02:00 268.38 0
25. 2. 2024 01:00 268.38 79

H - water level, Q - outflow

VD Kamýk

Date and time (UTC) H (m n. m.) Q (m³/s)
25. 2. 2024 13:20 282.59 -
25. 2. 2024 13:00 282.59 -
25. 2. 2024 12:00 282.66 -
25. 2. 2024 11:00 282.75 -
25. 2. 2024 10:00 282.86 -
25. 2. 2024 09:00 283.09 -
25. 2. 2024 08:00 283.34 -
25. 2. 2024 07:00 283.62 -
25. 2. 2024 06:00 283.85 -
25. 2. 2024 05:00 284.08 -
25. 2. 2024 04:00 284.31 -
25. 2. 2024 03:00 284.30 -
25. 2. 2024 02:00 284.33 -
25. 2. 2024 01:00 284.33 -

H - water level, Q - outflow

VD Orlík

Date and time (UTC) H (m n. m.) Q (m³/s)
25. 2. 2024 13:20 338.09 0
25. 2. 2024 13:00 338.08 0
25. 2. 2024 12:00 338.06 0
25. 2. 2024 11:00 338.04 0
25. 2. 2024 10:00 338.01 0
25. 2. 2024 09:00 337.99 0
25. 2. 2024 08:00 337.97 0
25. 2. 2024 07:00 337.94 0
25. 2. 2024 06:00 337.92 0
25. 2. 2024 05:00 337.90 0
25. 2. 2024 04:00 337.88 0
25. 2. 2024 03:00 337.85 0
25. 2. 2024 02:00 337.83 0
25. 2. 2024 01:00 337.81 0

H - water level, Q - outflow

VD Kořensko

Date and time (UTC) H (m n. m.) Q (m³/s)
25. 2. 2024 13:20 352.48 47.2
25. 2. 2024 13:00 352.49 47
25. 2. 2024 12:00 352.50 47
25. 2. 2024 11:00 352.51 47
25. 2. 2024 10:00 352.51 54
25. 2. 2024 09:00 352.51 51
25. 2. 2024 08:00 352.50 51
25. 2. 2024 07:00 352.50 51
25. 2. 2024 06:00 352.49 -
25. 2. 2024 05:00 352.49 51
25. 2. 2024 04:00 352.48 51
25. 2. 2024 03:00 352.48 51
25. 2. 2024 02:00 352.47 -
25. 2. 2024 01:00 352.47 54

H - water level, Q - outflow

VD Hněvkovice I - přehrada

Date and time (UTC) H (m n. m.) Q (m³/s)
- - -

H - water level, Q - outflow

České Budějovice

Date and time (UTC) H (cm) Q (m³/s)
25. 2. 2024 13:20 108 20.4
25. 2. 2024 13:00 108 20
25. 2. 2024 12:00 108 21
25. 2. 2024 11:00 107 20
25. 2. 2024 10:00 106 20
25. 2. 2024 09:00 106 21
25. 2. 2024 08:00 106 20
25. 2. 2024 07:00 106 20
25. 2. 2024 06:00 106 20
25. 2. 2024 05:00 105 20
25. 2. 2024 04:00 105 20
25. 2. 2024 03:00 106 20
25. 2. 2024 02:00 105 19
25. 2. 2024 01:00 105 20

H - water level, Q - discharge
more information

Vyšší Brod

Date and time (UTC) H (cm) Q (m³/s)
25. 2. 2024 13:20 63 6.1
25. 2. 2024 13:00 63 6
25. 2. 2024 12:00 63 6
25. 2. 2024 11:00 62 6
25. 2. 2024 10:00 62 6
25. 2. 2024 09:00 62 6
25. 2. 2024 08:00 62 6
25. 2. 2024 07:00 62 6
25. 2. 2024 06:00 62 6
25. 2. 2024 05:00 62 6
25. 2. 2024 04:00 62 6
25. 2. 2024 03:00 62 6
25. 2. 2024 02:00 62 6
25. 2. 2024 01:00 62 6

H - water level, Q - discharge
Source data
Labe Basin Vltava Basin Povodí Moravy ČHMÚ
Po vodě ekologicky, levně a v pohodě
backgroung on backgroung off